TimeMDT,TemperatureF,Dew PointF,Humidity,Sea Level PressureIn,VisibilityMPH,Wind Direction,Wind SpeedMPH,Gust SpeedMPH,PrecipitationIn,Events,Conditions,WindDirDegrees,DateUTC
12:53 AM,55.0,41.0,59,29.75,10.0,Calm,Calm,-,N/A,,Clear,0,2013-06-11 06:53:00
1:53 AM,51.1,43.0,74,29.77,10.0,Calm,Calm,-,N/A,,Clear,0,2013-06-11 07:53:00
2:53 AM,46.0,39.0,76,29.80,10.0,Calm,Calm,-,N/A,,Clear,0,2013-06-11 08:53:00
3:53 AM,43.0,37.9,82,29.79,10.0,Calm,Calm,-,N/A,,Clear,0,2013-06-11 09:53:00
4:53 AM,43.0,36.0,76,29.81,10.0,Calm,Calm,-,N/A,,Clear,0,2013-06-11 10:53:00
5:53 AM,39.0,35.1,86,29.86,10.0,Calm,Calm,-,N/A,,Clear,0,2013-06-11 11:53:00
6:53 AM,50.0,41.0,71,29.84,10.0,Calm,Calm,-,N/A,,Clear,0,2013-06-11 12:53:00
7:53 AM,57.0,41.0,55,29.86,10.0,Calm,Calm,-,N/A,,Clear,0,2013-06-11 13:53:00
8:53 AM,66.9,44.1,44,29.83,10.0,Calm,Calm,-,N/A,,Clear,0,2013-06-11 14:53:00
9:53 AM,78.1,27.0,15,29.81,10.0,SSW,15.0,23.0,N/A,,Clear,210,2013-06-11 15:53:00
10:53 AM,81.0,26.1,13,29.78,10.0,SSW,17.3,26.5,N/A,,Clear,210,2013-06-11 16:53:00
11:53 AM,-9999,-9999,N/A,30.03,-9999.0,North,-9999.0,-,N/A,,Unknown,0,2013-06-11 17:53:00
12:53 PM,84.0,24.1,11,29.78,10.0,SSW,20.7,32.2,N/A,,Clear,210,2013-06-11 18:53:00
1:53 PM,86.0,23.0,10,29.78,10.0,SW,23.0,35.7,N/A,,Clear,230,2013-06-11 19:53:00
2:53 PM,84.0,21.0,10,29.81,10.0,West,29.9,38.0,N/A,,Clear,260,2013-06-11 20:53:00
3:53 PM,84.9,24.1,11,29.83,10.0,WSW,26.5,41.4,N/A,,Clear,250,2013-06-11 21:53:00
4:53 PM,84.0,24.1,11,29.83,10.0,WSW,23.0,32.2,N/A,,Clear,250,2013-06-11 22:53:00
5:53 PM,82.0,19.9,10,29.86,10.0,West,24.2,36.8,N/A,,Clear,270,2013-06-11 23:53:00
6:53 PM,80.1,24.1,13,29.85,10.0,West,24.2,29.9,N/A,,Clear,280,2013-06-12 00:53:00
7:53 PM,75.0,25.0,16,29.87,10.0,West,11.5,-,N/A,,Clear,280,2013-06-12 01:53:00
8:53 PM,64.9,26.1,23,29.91,10.0,WSW,4.6,-,N/A,,Clear,240,2013-06-12 02:53:00
9:53 PM,60.1,27.0,28,29.94,10.0,Calm,Calm,-,N/A,,Clear,0,2013-06-12 03:53:00
10:53 PM,52.0,30.9,45,29.97,10.0,Calm,Calm,-,N/A,,Clear,0,2013-06-12 04:53:00
11:53 PM,51.1,32.0,48,30.19,10.0,Calm,Calm,-,N/A,,Clear,0,2013-06-12 05:53:00